Time,TemperatureF,DewpointF,PressureIn,WindDirection,WindDirectionDegrees,WindSpeedMPH,WindSpeedGustMPH,Humidity,HourlyPrecipIn,Conditions,Clouds,dailyrainin,SoftwareType,DateUTC
2013-03-12 00:05:00,33.4,26.0,29.15,North,7,0.0,0.0,74,0.00,,---,0.00,VWS V14.00,2013-03-12 05:05:00,
2013-03-12 00:08:00,33.1,25.7,29.15,North,7,0.0,0.0,74,0.00,,---,0.00,VWS V14.00,2013-03-12 05:08:00,
2013-03-12 00:11:00,33.1,25.7,29.15,North,7,0.0,0.0,74,0.00,,---,0.00,VWS V14.00,2013-03-12 05:11:00,
2013-03-12 00:17:00,33.1,26.0,29.15,North,7,0.0,0.0,75,0.00,,---,0.00,VWS V14.00,2013-03-12 05:17:00,
2013-03-12 00:20:00,33.1,26.0,29.15,North,7,0.0,0.0,75,0.00,,---,0.00,VWS V14.00,2013-03-12 05:20:00,
2013-03-12 00:23:00,33.1,26.0,29.15,North,7,0.0,0.0,75,0.00,,---,0.00,VWS V14.00,2013-03-12 05:23:00,
2013-03-12 00:29:00,33.1,26.0,29.15,North,7,0.0,0.0,75,0.00,,---,0.00,VWS V14.00,2013-03-12 05:29:00,
2013-03-12 00:32:00,32.9,26.2,29.15,North,7,0.0,0.0,76,0.00,,---,0.00,VWS V14.00,2013-03-12 05:32:00,
2013-03-12 00:35:00,32.9,26.2,29.15,North,7,0.0,0.0,76,0.00,,---,0.00,VWS V14.00,2013-03-12 05:35:00,
2013-03-12 00:38:00,32.5,25.8,29.15,North,7,0.0,0.0,76,0.00,,---,0.00,VWS V14.00,2013-03-12 05:38:00,
2013-03-12 00:41:00,32.5,25.8,29.15,North,7,0.0,0.0,76,0.00,,---,0.00,VWS V14.00,2013-03-12 05:41:00,
2013-03-12 00:44:00,32.2,25.1,29.15,North,7,0.0,0.0,75,0.00,,---,0.00,VWS V14.00,2013-03-12 05:44:00,
2013-03-12 00:50:00,32.0,25.3,29.15,North,7,0.0,0.0,76,0.00,,---,0.00,VWS V14.00,2013-03-12 05:50:00,
2013-03-12 00:53:00,32.0,25.3,29.15,North,7,0.0,0.0,76,0.00,,---,0.00,VWS V14.00,2013-03-12 05:53:00,
2013-03-12 00:56:00,31.8,25.1,29.15,North,7,0.0,0.0,76,0.00,,---,0.00,VWS V14.00,2013-03-12 05:56:00,
2013-03-12 00:59:00,31.8,25.1,29.15,North,7,0.0,0.0,76,0.00,,---,0.00,VWS V14.00,2013-03-12 05:59:00,
2013-03-12 01:02:00,31.8,25.1,29.15,North,7,0.0,0.0,76,0.00,,---,0.00,VWS V14.00,2013-03-12 06:02:00,
2013-03-12 01:05:00,31.6,25.2,29.15,North,7,0.0,0.0,77,0.00,,---,0.00,VWS V14.00,2013-03-12 06:05:00,
2013-03-12 01:08:00,31.8,25.4,29.15,North,7,0.0,0.0,77,0.00,,---,0.00,VWS V14.00,2013-03-12 06:08:00,
2013-03-12 01:11:00,31.8,25.4,29.15,North,7,0.0,0.0,77,0.00,,---,0.00,VWS V14.00,2013-03-12 06:11:00,
2013-03-12 01:14:00,32.0,25.6,29.15,North,7,0.0,0.0,77,0.00,,---,0.00,VWS V14.00,2013-03-12 06:14:00,
2013-03-12 01:17:00,31.8,25.4,29.15,North,7,0.0,0.0,77,0.00,,---,0.00,VWS V14.00,2013-03-12 06:17:00,
2013-03-12 01:20:00,31.8,25.4,29.15,North,7,0.0,0.0,77,0.00,,---,0.00,VWS V14.00,2013-03-12 06:20:00,
2013-03-12 01:23:00,31.6,25.2,29.15,North,7,0.0,0.0,77,0.00,,---,0.00,VWS V14.00,2013-03-12 06:23:00,
2013-03-12 01:29:00,31.6,25.6,29.18,North,7,0.0,0.0,78,0.00,,---,0.00,VWS V14.00,2013-03-12 06:29:00,
2013-03-12 01:32:00,31.6,25.6,29.18,North,7,0.0,0.0,78,0.00,,---,0.00,VWS V14.00,2013-03-12 06:32:00,
2013-03-12 01:35:00,31.4,25.4,29.18,North,7,0.0,0.0,78,0.00,,---,0.00,VWS V14.00,2013-03-12 06:35:00,
2013-03-12 01:41:00,31.6,25.6,29.18,North,7,0.0,0.0,78,0.00,,---,0.00,VWS V14.00,2013-03-12 06:41:00,
2013-03-12 01:44:00,31.6,25.6,29.18,North,7,0.0,0.0,78,0.00,,---,0.00,VWS V14.00,2013-03-12 06:44:00,
2013-03-12 01:47:00,31.3,25.2,29.18,North,7,0.0,0.0,78,0.00,,---,0.00,VWS V14.00,2013-03-12 06:47:00,
2013-03-12 01:50:00,31.3,25.2,29.18,North,7,0.0,0.0,78,0.00,,---,0.00,VWS V14.00,2013-03-12 06:50:00,
2013-03-12 01:54:00,31.3,25.5,29.18,North,7,0.0,0.0,79,0.00,,---,0.00,VWS V14.00,2013-03-12 06:54:00,
2013-03-12 01:57:00,31.3,25.5,29.18,North,7,0.0,0.0,79,0.00,,---,0.00,VWS V14.00,2013-03-12 06:57:00,
2013-03-12 02:00:00,31.3,25.5,29.18,North,7,0.0,0.0,79,0.00,,---,0.00,VWS V14.00,2013-03-12 07:00:00,
2013-03-12 02:03:00,31.3,25.5,29.18,North,7,0.0,0.0,79,0.00,,---,0.00,VWS V14.00,2013-03-12 07:03:00,
2013-03-12 02:06:00,31.3,25.5,29.18,North,7,0.0,0.0,79,0.00,,---,0.00,VWS V14.00,2013-03-12 07:06:00,
2013-03-12 02:12:00,31.3,25.5,29.18,North,7,0.0,0.0,79,0.00,,---,0.00,VWS V14.00,2013-03-12 07:12:00,
2013-03-12 02:15:00,31.1,25.3,29.18,North,7,0.0,0.0,79,0.00,,---,0.00,VWS V14.00,2013-03-12 07:15:00,
2013-03-12 02:20:00,31.1,25.3,29.15,North,7,0.0,0.0,79,0.00,,---,0.00,VWS V14.00,2013-03-12 07:20:00,
2013-03-12 02:21:00,31.1,25.3,29.15,North,7,0.0,0.0,79,0.00,,---,0.00,VWS V14.00,2013-03-12 07:21:00,
2013-03-12 02:27:00,30.9,25.5,29.15,North,7,0.0,0.0,80,0.00,,---,0.00,VWS V14.00,2013-03-12 07:27:00,
2013-03-12 02:30:00,30.9,25.5,29.15,North,7,0.0,0.0,80,0.00,,---,0.00,VWS V14.00,2013-03-12 07:30:00,
2013-03-12 02:33:00,30.9,25.5,29.15,North,7,0.0,0.0,80,0.00,,---,0.00,VWS V14.00,2013-03-12 07:33:00,
2013-03-12 02:35:00,30.9,25.5,29.15,North,7,0.0,0.0,80,0.00,,---,0.00,VWS V14.00,2013-03-12 07:35:00,
2013-03-12 02:39:00,30.9,25.5,29.15,North,7,0.0,0.0,80,0.00,,---,0.00,VWS V14.00,2013-03-12 07:39:00,
2013-03-12 02:42:00,30.9,25.5,29.15,North,7,0.0,0.0,80,0.00,,---,0.00,VWS V14.00,2013-03-12 07:42:00,
2013-03-12 02:45:00,30.9,25.5,29.15,North,7,0.0,0.0,80,0.00,,---,0.00,VWS V14.00,2013-03-12 07:45:00,
2013-03-12 02:50:00,30.9,25.5,29.18,North,7,0.0,0.0,80,0.00,,---,0.00,VWS V14.00,2013-03-12 07:50:00,
2013-03-12 02:54:00,30.9,25.5,29.18,North,7,0.0,0.0,80,0.00,,---,0.00,VWS V14.00,2013-03-12 07:54:00,
2013-03-12 03:00:00,30.9,25.5,29.18,North,7,0.0,0.0,80,0.00,,---,0.00,VWS V14.00,2013-03-12 08:00:00,
2013-03-12 03:03:00,30.9,25.5,29.18,North,7,0.0,0.0,80,0.00,,---,0.00,VWS V14.00,2013-03-12 08:03:00,
2013-03-12 03:06:00,30.9,25.5,29.18,North,7,0.0,0.0,80,0.00,,---,0.00,VWS V14.00,2013-03-12 08:06:00,
2013-03-12 03:09:00,30.9,25.5,29.18,North,7,0.0,0.0,80,0.00,,---,0.00,VWS V14.00,2013-03-12 08:09:00,
2013-03-12 03:15:00,29.8,25.0,29.18,North,7,0.0,0.0,82,0.00,,---,0.00,VWS V14.00,2013-03-12 08:15:00,
2013-03-12 03:18:00,29.8,25.0,29.18,North,7,0.0,0.0,82,0.00,,---,0.00,VWS V14.00,2013-03-12 08:18:00,
2013-03-12 03:20:00,29.8,25.0,29.18,North,7,0.0,0.0,82,0.00,,---,0.00,VWS V14.00,2013-03-12 08:20:00,
2013-03-12 03:24:00,30.0,25.2,29.18,North,7,0.0,0.0,82,0.00,,---,0.00,VWS V14.00,2013-03-12 08:24:00,
2013-03-12 03:27:00,30.0,25.2,29.18,North,7,0.0,0.0,82,0.00,,---,0.00,VWS V14.00,2013-03-12 08:27:00,
2013-03-12 03:30:00,30.0,25.2,29.18,North,7,0.0,0.0,82,0.00,,---,0.00,VWS V14.00,2013-03-12 08:30:00,
2013-03-12 03:33:00,30.0,25.2,29.18,North,7,0.0,0.0,82,0.00,,---,0.00,VWS V14.00,2013-03-12 08:33:00,
2013-03-12 03:35:00,30.0,25.2,29.18,North,7,0.0,0.0,82,0.00,,---,0.00,VWS V14.00,2013-03-12 08:35:00,
2013-03-12 03:36:00,30.0,25.2,29.18,North,7,0.0,0.0,82,0.00,,---,0.00,VWS V14.00,2013-03-12 08:36:00,
2013-03-12 03:42:00,30.0,25.2,29.18,North,7,0.0,0.0,82,0.00,,---,0.00,VWS V14.00,2013-03-12 08:42:00,
2013-03-12 03:45:00,30.2,25.6,29.18,North,7,0.0,0.0,83,0.00,,---,0.00,VWS V14.00,2013-03-12 08:45:00,
2013-03-12 03:48:00,30.2,25.6,29.18,North,7,0.0,0.0,83,0.00,,---,0.00,VWS V14.00,2013-03-12 08:48:00,
2013-03-12 03:51:00,30.2,25.6,29.18,North,7,0.0,0.0,83,0.00,,---,0.00,VWS V14.00,2013-03-12 08:51:00,
2013-03-12 03:54:00,30.2,25.6,29.18,North,7,0.0,0.0,83,0.00,,---,0.00,VWS V14.00,2013-03-12 08:54:00,
2013-03-12 03:57:00,30.2,25.6,29.18,North,7,0.0,0.0,83,0.00,,---,0.00,VWS V14.00,2013-03-12 08:57:00,
2013-03-12 04:03:00,30.2,25.6,29.18,North,7,0.0,0.0,83,0.00,,---,0.00,VWS V14.00,2013-03-12 09:03:00,
2013-03-12 04:05:00,30.2,25.6,29.18,North,7,0.0,0.0,83,0.00,,---,0.00,VWS V14.00,2013-03-12 09:05:00,
2013-03-12 04:06:00,30.2,25.6,29.18,North,7,0.0,0.0,83,0.00,,---,0.00,VWS V14.00,2013-03-12 09:06:00,
2013-03-12 04:09:00,30.5,26.3,29.18,North,7,0.0,0.0,84,0.00,,---,0.00,VWS V14.00,2013-03-12 09:09:00,
2013-03-12 04:15:00,30.5,26.3,29.18,North,7,0.0,0.0,84,0.00,,---,0.00,VWS V14.00,2013-03-12 09:15:00,
2013-03-12 04:20:00,30.5,26.3,29.18,North,7,0.0,0.0,84,0.00,,---,0.00,VWS V14.00,2013-03-12 09:20:00,
2013-03-12 04:21:00,30.5,26.3,29.18,North,7,0.0,0.0,84,0.00,,---,0.00,VWS V14.00,2013-03-12 09:21:00,
2013-03-12 04:24:00,30.5,26.3,29.18,North,7,0.0,0.0,84,0.00,,---,0.00,VWS V14.00,2013-03-12 09:24:00,
2013-03-12 04:30:00,30.5,26.3,29.18,North,7,0.0,0.0,84,0.00,,---,0.00,VWS V14.00,2013-03-12 09:30:00,
2013-03-12 04:33:00,30.5,26.3,29.18,North,7,0.0,0.0,84,0.00,,---,0.00,VWS V14.00,2013-03-12 09:33:00,
2013-03-12 04:36:00,30.5,26.3,29.18,North,7,0.0,0.0,84,0.00,,---,0.00,VWS V14.00,2013-03-12 09:36:00,
2013-03-12 04:39:00,30.5,26.3,29.18,North,7,0.0,0.0,84,0.00,,---,0.00,VWS V14.00,2013-03-12 09:39:00,
2013-03-12 04:42:00,30.5,26.3,29.18,North,7,0.0,0.0,84,0.00,,---,0.00,VWS V14.00,2013-03-12 09:42:00,
2013-03-12 04:48:00,30.5,26.3,29.15,North,7,0.0,0.0,84,0.00,,---,0.00,VWS V14.00,2013-03-12 09:48:00,
2013-03-12 04:50:00,30.5,26.3,29.15,North,7,0.0,0.0,84,0.00,,---,0.00,VWS V14.00,2013-03-12 09:50:00,
2013-03-12 04:51:00,30.5,26.3,29.15,North,7,0.0,0.0,84,0.00,,---,0.00,VWS V14.00,2013-03-12 09:51:00,
2013-03-12 04:57:00,30.5,26.3,29.18,North,7,0.0,0.0,84,0.00,,---,0.00,VWS V14.00,2013-03-12 09:57:00,
2013-03-12 05:00:00,30.5,26.3,29.18,North,7,0.0,0.0,84,0.00,,---,0.00,VWS V14.00,2013-03-12 10:00:00,
2013-03-12 05:03:00,30.5,26.3,29.18,North,7,0.0,0.0,84,0.00,,---,0.00,VWS V14.00,2013-03-12 10:03:00,
2013-03-12 05:06:00,30.5,26.3,29.18,North,7,0.0,0.0,84,0.00,,---,0.00,VWS V14.00,2013-03-12 10:06:00,
2013-03-12 05:12:00,30.5,26.3,29.18,North,7,0.0,0.0,84,0.00,,---,0.00,VWS V14.00,2013-03-12 10:12:00,
2013-03-12 05:15:00,30.5,26.3,29.18,North,7,0.0,0.0,84,0.00,,---,0.00,VWS V14.00,2013-03-12 10:15:00,
2013-03-12 05:18:00,30.5,26.3,29.18,North,7,0.0,0.0,84,0.00,,---,0.00,VWS V14.00,2013-03-12 10:18:00,
2013-03-12 05:21:00,30.5,26.3,29.18,North,7,0.0,0.0,84,0.00,,---,0.00,VWS V14.00,2013-03-12 10:21:00,
2013-03-12 05:24:00,30.5,26.3,29.18,North,7,0.0,0.0,84,0.00,,---,0.00,VWS V14.00,2013-03-12 10:24:00,
2013-03-12 05:27:00,30.5,26.3,29.18,North,7,0.0,0.0,84,0.00,,---,0.00,VWS V14.00,2013-03-12 10:27:00,
2013-03-12 05:30:00,30.5,26.3,29.18,North,7,0.0,0.0,84,0.00,,---,0.00,VWS V14.00,2013-03-12 10:30:00,
2013-03-12 05:33:00,30.5,26.3,29.18,North,7,0.0,0.0,84,0.00,,---,0.00,VWS V14.00,2013-03-12 10:33:00,
2013-03-12 05:37:00,30.5,26.3,29.18,North,7,0.0,0.0,84,0.00,,---,0.00,VWS V14.00,2013-03-12 10:37:00,
2013-03-12 05:43:00,30.5,26.3,29.18,North,7,0.0,0.0,84,0.00,,---,0.00,VWS V14.00,2013-03-12 10:43:00,
2013-03-12 05:46:00,30.5,26.3,29.18,North,7,0.0,0.0,84,0.00,,---,0.00,VWS V14.00,2013-03-12 10:46:00,
2013-03-12 05:49:00,30.5,26.3,29.18,North,7,0.0,0.0,84,0.00,,---,0.00,VWS V14.00,2013-03-12 10:49:00,
2013-03-12 05:55:00,30.5,26.3,29.18,North,7,0.0,0.0,84,0.00,,---,0.00,VWS V14.00,2013-03-12 10:55:00,
2013-03-12 05:58:00,30.5,26.3,29.21,North,7,0.0,0.0,84,0.00,,---,0.00,VWS V14.00,2013-03-12 10:58:00,
2013-03-12 06:01:00,30.5,26.3,29.21,North,7,0.0,0.0,84,0.00,,---,0.00,VWS V14.00,2013-03-12 11:01:00,
2013-03-12 06:07:00,30.5,26.3,29.21,North,7,0.0,0.0,84,0.00,,---,0.00,VWS V14.00,2013-03-12 11:07:00,
2013-03-12 06:10:00,30.5,26.3,29.21,North,7,0.0,0.0,84,0.00,,---,0.00,VWS V14.00,2013-03-12 11:10:00,
2013-03-12 06:13:00,30.5,26.3,29.21,North,7,0.0,0.0,84,0.00,,---,0.00,VWS V14.00,2013-03-12 11:13:00,
2013-03-12 06:16:00,30.5,26.3,29.21,North,7,0.0,0.0,84,0.00,,---,0.00,VWS V14.00,2013-03-12 11:16:00,
2013-03-12 06:19:00,30.5,26.3,29.21,North,7,0.0,0.0,84,0.00,,---,0.00,VWS V14.00,2013-03-12 11:19:00,
2013-03-12 06:22:00,30.5,26.3,29.21,North,7,0.0,0.0,84,0.00,,---,0.00,VWS V14.00,2013-03-12 11:22:00,
2013-03-12 06:28:00,30.5,26.3,29.21,North,7,0.0,0.0,84,0.00,,---,0.00,VWS V14.00,2013-03-12 11:28:00,
2013-03-12 06:34:00,30.5,26.3,29.21,North,7,0.0,0.0,84,0.00,,---,0.00,VWS V14.00,2013-03-12 11:34:00,
2013-03-12 06:37:00,30.5,26.3,29.21,North,7,0.0,0.0,84,0.00,,---,0.00,VWS V14.00,2013-03-12 11:37:00,
2013-03-12 06:43:00,30.5,26.3,29.21,North,7,0.0,0.0,84,0.00,,---,0.00,VWS V14.00,2013-03-12 11:43:00,
2013-03-12 06:46:00,30.5,26.3,29.21,North,7,0.0,0.0,84,0.00,,---,0.00,VWS V14.00,2013-03-12 11:46:00,
2013-03-12 06:49:00,30.5,26.3,29.23,North,7,0.0,0.0,84,0.00,,---,0.00,VWS V14.00,2013-03-12 11:49:00,
2013-03-12 06:52:00,30.5,26.3,29.23,North,7,0.0,0.0,84,0.00,,---,0.00,VWS V14.00,2013-03-12 11:52:00,
2013-03-12 06:55:00,30.5,26.3,29.23,North,7,0.0,0.0,84,0.00,,---,0.00,VWS V14.00,2013-03-12 11:55:00,
2013-03-12 06:58:00,30.5,26.3,29.23,North,7,0.0,0.0,84,0.00,,---,0.00,VWS V14.00,2013-03-12 11:58:00,
2013-03-12 07:04:00,30.5,26.3,29.23,North,7,0.0,0.0,84,0.00,,---,0.00,VWS V14.00,2013-03-12 12:04:00,
2013-03-12 07:05:00,30.5,26.3,29.23,North,7,0.0,0.0,84,0.00,,---,0.00,VWS V14.00,2013-03-12 12:05:00,
2013-03-12 07:10:00,30.5,26.3,29.23,North,7,0.0,0.0,84,0.00,,---,0.00,VWS V14.00,2013-03-12 12:10:00,
2013-03-12 07:17:00,32.5,27.9,29.23,North,7,0.0,0.0,83,0.00,,---,0.00,VWS V14.00,2013-03-12 12:17:00,
2013-03-12 07:20:00,32.5,27.9,29.23,North,7,0.0,0.0,83,0.00,,---,0.00,VWS V14.00,2013-03-12 12:20:00,
2013-03-12 07:26:00,32.7,28.1,29.23,North,7,0.0,0.0,83,0.00,,---,0.00,VWS V14.00,2013-03-12 12:26:00,
2013-03-12 07:29:00,32.9,28.3,29.26,North,7,0.0,0.0,83,0.00,,---,0.00,VWS V14.00,2013-03-12 12:29:00,
2013-03-12 07:32:00,32.9,28.3,29.26,North,7,0.0,0.0,83,0.00,,---,0.00,VWS V14.00,2013-03-12 12:32:00,
2013-03-12 07:35:00,32.9,28.3,29.26,North,7,0.0,0.0,83,0.00,,---,0.00,VWS V14.00,2013-03-12 12:35:00,
2013-03-12 07:41:00,32.9,28.3,29.26,North,7,0.0,0.0,83,0.00,,---,0.00,VWS V14.00,2013-03-12 12:41:00,
2013-03-12 07:44:00,32.9,28.3,29.26,North,7,0.0,0.0,83,0.00,,---,0.00,VWS V14.00,2013-03-12 12:44:00,
2013-03-12 07:50:00,32.9,28.3,29.26,North,7,0.0,0.0,83,0.00,,---,0.00,VWS V14.00,2013-03-12 12:50:00,
2013-03-12 07:56:00,32.9,28.3,29.26,North,7,0.0,0.0,83,0.00,,---,0.00,VWS V14.00,2013-03-12 12:56:00,
2013-03-12 07:59:00,32.9,28.3,29.26,North,7,0.0,0.0,83,0.00,,---,0.00,VWS V14.00,2013-03-12 12:59:00,
2013-03-12 08:02:00,32.9,28.3,29.26,North,7,0.0,0.0,83,0.00,,---,0.00,VWS V14.00,2013-03-12 13:02:00,
2013-03-12 08:05:00,33.8,28.9,29.26,North,7,0.0,0.0,82,0.00,,---,0.00,VWS V14.00,2013-03-12 13:05:00,
2013-03-12 08:08:00,33.8,28.9,29.26,North,7,0.0,0.0,82,0.00,,---,0.00,VWS V14.00,2013-03-12 13:08:00,
2013-03-12 08:11:00,33.8,28.9,29.26,North,7,0.0,0.0,82,0.00,,---,0.00,VWS V14.00,2013-03-12 13:11:00,
2013-03-12 08:14:00,33.8,28.9,29.26,North,7,0.0,0.0,82,0.00,,---,0.00,VWS V14.00,2013-03-12 13:14:00,
2013-03-12 08:20:00,33.8,28.9,29.26,North,7,0.0,0.0,82,0.00,,---,0.00,VWS V14.00,2013-03-12 13:20:00,
2013-03-12 08:29:00,33.8,28.9,29.26,North,7,0.0,0.0,82,0.00,,---,0.00,VWS V14.00,2013-03-12 13:29:00,
2013-03-12 08:35:00,33.8,28.9,29.26,North,7,0.0,0.0,82,0.00,,---,0.00,VWS V14.00,2013-03-12 13:35:00,
2013-03-12 08:44:00,35.4,29.2,29.26,North,7,0.0,0.0,78,0.00,,---,0.00,VWS V14.00,2013-03-12 13:44:00,
2013-03-12 08:47:00,35.4,29.2,29.26,North,7,0.0,0.0,78,0.00,,---,0.00,VWS V14.00,2013-03-12 13:47:00,
2013-03-12 08:51:00,35.4,29.2,29.26,North,7,0.0,0.0,78,0.00,,---,0.00,VWS V14.00,2013-03-12 13:51:00,
2013-03-12 08:54:00,35.9,29.4,29.26,North,7,0.0,0.0,77,0.00,,---,0.00,VWS V14.00,2013-03-12 13:54:00,
2013-03-12 08:57:00,35.9,29.4,29.26,North,7,0.0,0.0,77,0.00,,---,0.00,VWS V14.00,2013-03-12 13:57:00,
2013-03-12 09:00:00,35.9,29.4,29.26,North,7,0.0,0.0,77,0.00,,---,0.00,VWS V14.00,2013-03-12 14:00:00,
2013-03-12 09:05:00,35.9,29.4,29.26,North,7,0.0,0.0,77,0.00,,---,0.00,VWS V14.00,2013-03-12 14:05:00,
2013-03-12 09:09:00,36.8,29.7,29.26,North,7,0.0,0.0,75,0.00,,---,0.00,VWS V14.00,2013-03-12 14:09:00,
2013-03-12 09:12:00,36.8,29.7,29.26,North,7,0.0,0.0,75,0.00,,---,0.00,VWS V14.00,2013-03-12 14:12:00,
2013-03-12 09:18:00,36.8,29.7,29.29,North,7,0.0,0.0,75,0.00,,---,0.00,VWS V14.00,2013-03-12 14:18:00,
2013-03-12 09:20:00,36.8,29.7,29.29,North,7,0.0,0.0,75,0.00,,---,0.00,VWS V14.00,2013-03-12 14:20:00,
2013-03-12 09:24:00,36.8,29.7,29.29,North,7,0.0,0.0,75,0.00,,---,0.00,VWS V14.00,2013-03-12 14:24:00,
2013-03-12 09:27:00,37.7,29.5,29.29,North,7,0.0,0.0,72,0.00,,---,0.00,VWS V14.00,2013-03-12 14:27:00,
2013-03-12 09:30:00,37.7,29.5,29.29,North,7,0.0,0.0,72,0.00,,---,0.00,VWS V14.00,2013-03-12 14:30:00,
2013-03-12 09:36:00,38.6,30.1,29.29,North,7,0.0,0.0,71,0.00,,---,0.00,VWS V14.00,2013-03-12 14:36:00,
2013-03-12 09:39:00,38.6,30.1,29.29,North,7,0.0,0.0,71,0.00,,---,0.00,VWS V14.00,2013-03-12 14:39:00,
2013-03-12 09:45:00,39.5,30.2,29.29,North,7,0.0,0.0,69,0.00,,---,0.00,VWS V14.00,2013-03-12 14:45:00,
2013-03-12 09:48:00,39.5,30.2,29.29,North,7,0.0,0.0,69,0.00,,---,0.00,VWS V14.00,2013-03-12 14:48:00,
2013-03-12 09:51:00,39.5,30.2,29.29,North,7,0.0,0.0,69,0.00,,---,0.00,VWS V14.00,2013-03-12 14:51:00,
2013-03-12 09:54:00,40.1,30.4,29.29,North,7,0.0,0.0,68,0.00,,---,0.00,VWS V14.00,2013-03-12 14:54:00,
2013-03-12 10:00:00,40.1,30.4,29.29,North,7,0.0,0.0,68,0.00,,---,0.00,VWS V14.00,2013-03-12 15:00:00,
2013-03-12 10:03:00,40.1,30.4,29.29,North,7,0.0,0.0,68,0.00,,---,0.00,VWS V14.00,2013-03-12 15:03:00,
2013-03-12 10:09:00,42.1,30.0,29.29,North,7,0.0,0.0,62,0.00,,---,0.00,VWS V14.00,2013-03-12 15:09:00,
2013-03-12 10:12:00,42.1,30.0,29.29,North,7,0.0,0.0,62,0.00,,---,0.00,VWS V14.00,2013-03-12 15:12:00,
2013-03-12 10:15:00,42.1,30.0,29.29,North,7,0.0,0.0,62,0.00,,---,0.00,VWS V14.00,2013-03-12 15:15:00,
2013-03-12 10:20:00,42.8,29.0,29.29,North,7,0.0,0.0,58,0.00,,---,0.00,VWS V14.00,2013-03-12 15:20:00,
2013-03-12 10:21:00,42.8,29.0,29.29,North,7,0.0,0.0,58,0.00,,---,0.00,VWS V14.00,2013-03-12 15:21:00,
2013-03-12 10:25:00,43.5,29.3,29.29,North,7,0.0,0.0,57,0.00,,---,0.00,VWS V14.00,2013-03-12 15:25:00,
2013-03-12 10:28:00,43.9,29.6,29.29,North,7,0.0,0.0,57,0.00,,---,0.00,VWS V14.00,2013-03-12 15:28:00,
2013-03-12 10:34:00,43.9,29.6,29.29,North,7,0.0,0.0,57,0.00,,---,0.00,VWS V14.00,2013-03-12 15:34:00,
2013-03-12 10:37:00,43.9,29.6,29.29,North,7,0.0,0.0,57,0.00,,---,0.00,VWS V14.00,2013-03-12 15:37:00,
2013-03-12 10:43:00,43.9,29.6,29.29,North,7,0.0,0.0,57,0.00,,---,0.00,VWS V14.00,2013-03-12 15:43:00,
2013-03-12 10:46:00,43.9,29.6,29.29,WSW,239,0.0,0.0,57,0.00,,---,0.00,VWS V14.00,2013-03-12 15:46:00,
2013-03-12 10:49:00,43.9,29.6,29.29,WSW,239,0.0,0.0,57,0.00,,---,0.00,VWS V14.00,2013-03-12 15:49:00,
2013-03-12 10:50:00,43.9,29.6,29.29,WSW,239,0.0,0.0,57,0.00,,---,0.00,VWS V14.00,2013-03-12 15:50:00,
2013-03-12 10:55:00,45.5,28.4,29.29,WSW,239,0.0,0.0,51,0.00,,---,0.00,VWS V14.00,2013-03-12 15:55:00,
2013-03-12 10:58:00,45.5,28.4,29.29,WSW,239,0.0,0.0,51,0.00,,---,0.00,VWS V14.00,2013-03-12 15:58:00,
2013-03-12 11:01:00,46.4,28.3,29.29,West,272,0.0,0.0,49,0.00,,---,0.00,VWS V14.00,2013-03-12 16:01:00,
2013-03-12 11:04:00,46.4,28.3,29.29,North,0,3.1,3.1,49,0.00,,---,0.00,VWS V14.00,2013-03-12 16:04:00,
2013-03-12 11:05:00,46.4,28.3,29.29,North,0,3.1,3.1,49,0.00,,---,0.00,VWS V14.00,2013-03-12 16:05:00,
2013-03-12 11:07:00,46.4,28.3,29.29,SW,234,0.0,3.1,49,0.00,,---,0.00,VWS V14.00,2013-03-12 16:07:00,
2013-03-12 11:10:00,47.1,28.4,29.29,SW,234,0.0,3.1,48,0.00,,---,0.00,VWS V14.00,2013-03-12 16:10:00,
2013-03-12 11:13:00,47.1,28.4,29.29,SW,234,0.0,3.1,48,0.00,,---,0.00,VWS V14.00,2013-03-12 16:13:00,
2013-03-12 11:19:00,47.1,28.4,29.29,North,350,0.0,3.1,48,0.00,,---,0.00,VWS V14.00,2013-03-12 16:19:00,
2013-03-12 11:20:00,47.1,28.4,29.29,North,350,0.0,3.1,48,0.00,,---,0.00,VWS V14.00,2013-03-12 16:20:00,
2013-03-12 11:22:00,47.1,28.4,29.29,ENE,72,0.0,0.0,48,0.00,,---,0.00,VWS V14.00,2013-03-12 16:22:00,
2013-03-12 11:28:00,47.8,29.1,29.29,NNE,23,0.0,0.0,48,0.00,,---,0.00,VWS V14.00,2013-03-12 16:28:00,
2013-03-12 11:31:00,47.8,29.1,29.29,ESE,117,0.0,0.0,48,0.00,,---,0.00,VWS V14.00,2013-03-12 16:31:00,
2013-03-12 11:34:00,47.8,29.1,29.29,ESE,117,0.0,0.0,48,0.00,,---,0.00,VWS V14.00,2013-03-12 16:34:00,
2013-03-12 11:35:00,47.8,29.1,29.29,ESE,117,0.0,0.0,48,0.00,,---,0.00,VWS V14.00,2013-03-12 16:35:00,
2013-03-12 11:41:00,48.5,28.7,29.29,West,260,0.0,3.6,46,0.00,,---,0.00,VWS V14.00,2013-03-12 16:41:00,
2013-03-12 11:44:00,48.9,29.0,29.29,North,353,0.0,3.6,46,0.00,,---,0.00,VWS V14.00,2013-03-12 16:44:00,
2013-03-12 11:47:00,48.9,29.0,29.29,North,353,0.0,3.6,46,0.00,,---,0.00,VWS V14.00,2013-03-12 16:47:00,
2013-03-12 11:50:00,48.9,29.0,29.29,NE,35,0.0,3.6,46,0.00,,---,0.00,VWS V14.00,2013-03-12 16:50:00,
2013-03-12 11:53:00,49.8,28.8,29.29,NNE,15,0.0,0.0,44,0.00,,---,0.00,VWS V14.00,2013-03-12 16:53:00,
2013-03-12 11:56:00,49.8,28.8,29.29,SSW,208,3.1,3.1,44,0.00,,---,0.00,VWS V14.00,2013-03-12 16:56:00,
2013-03-12 12:05:00,50.3,28.7,29.29,WNW,292,0.0,3.1,43,0.00,,---,0.00,VWS V14.00,2013-03-12 17:05:00,
2013-03-12 12:11:00,51.1,29.4,29.29,WSW,245,0.0,0.0,43,0.00,,---,0.00,VWS V14.00,2013-03-12 17:11:00,
2013-03-12 12:14:00,51.1,29.4,29.29,ESE,115,0.0,0.0,43,0.00,,---,0.00,VWS V14.00,2013-03-12 17:14:00,
2013-03-12 12:20:00,51.1,29.4,29.29,ESE,115,0.0,0.0,43,0.00,,---,0.00,VWS V14.00,2013-03-12 17:20:00,
2013-03-12 12:26:00,51.8,29.4,29.29,North,7,3.6,3.6,42,0.00,,---,0.00,VWS V14.00,2013-03-12 17:26:00,
2013-03-12 12:29:00,51.8,29.4,29.29,NE,45,0.0,3.6,42,0.00,,---,0.00,VWS V14.00,2013-03-12 17:29:00,
2013-03-12 12:32:00,51.8,29.4,29.29,South,187,2.2,3.6,42,0.00,,---,0.00,VWS V14.00,2013-03-12 17:32:00,
2013-03-12 12:35:00,53.0,30.0,29.29,South,187,2.2,2.2,41,0.00,,---,0.00,VWS V14.00,2013-03-12 17:35:00,
2013-03-12 12:38:00,53.0,30.0,29.29,SE,129,0.0,2.2,41,0.00,,---,0.00,VWS V14.00,2013-03-12 17:38:00,
2013-03-12 12:44:00,53.4,29.7,29.29,SW,230,0.0,2.2,40,0.00,,---,0.00,VWS V14.00,2013-03-12 17:44:00,
2013-03-12 12:50:00,53.4,29.7,29.29,SSW,210,0.0,2.2,40,0.00,,---,0.00,VWS V14.00,2013-03-12 17:50:00,
2013-03-12 12:56:00,53.4,29.7,29.29,North,9,2.7,3.6,40,0.00,,---,0.00,VWS V14.00,2013-03-12 17:56:00,
2013-03-12 13:02:00,53.4,29.7,29.29,SSW,199,0.0,3.6,40,0.00,,---,0.00,VWS V14.00,2013-03-12 18:02:00,
2013-03-12 13:05:00,53.4,29.7,29.29,SSW,200,0.0,3.6,40,0.00,,---,0.00,VWS V14.00,2013-03-12 18:05:00,
2013-03-12 13:11:00,53.4,29.7,29.29,NNE,32,0.0,0.0,40,0.00,,---,0.00,VWS V14.00,2013-03-12 18:11:00,
2013-03-12 13:14:00,53.4,29.7,29.29,SSW,203,0.0,2.2,40,0.00,,---,0.00,VWS V14.00,2013-03-12 18:14:00,
2013-03-12 13:17:00,54.3,29.9,29.29,SSW,203,0.0,2.2,39,0.00,,---,0.00,VWS V14.00,2013-03-12 18:17:00,
2013-03-12 13:20:00,54.3,29.9,29.29,NNE,14,0.0,0.0,39,0.00,,---,0.00,VWS V14.00,2013-03-12 18:20:00,
2013-03-12 13:23:00,54.3,29.9,29.29,SW,218,0.0,0.0,39,0.00,,---,0.00,VWS V14.00,2013-03-12 18:23:00,
2013-03-12 13:26:00,54.8,30.4,29.29,SSW,199,0.0,2.7,39,0.00,,---,0.00,VWS V14.00,2013-03-12 18:26:00,
2013-03-12 13:32:00,54.8,30.4,29.29,SSW,205,0.0,2.7,39,0.00,,---,0.00,VWS V14.00,2013-03-12 18:32:00,
2013-03-12 13:35:00,55.2,30.1,29.29,SSE,166,0.0,0.0,38,0.00,,---,0.00,VWS V14.00,2013-03-12 18:35:00,
2013-03-12 13:38:00,55.2,30.1,29.29,SW,232,0.0,2.7,38,0.00,,---,0.00,VWS V14.00,2013-03-12 18:38:00,
2013-03-12 13:41:00,55.4,30.2,29.29,SW,232,0.0,2.7,38,0.00,,---,0.00,VWS V14.00,2013-03-12 18:41:00,
2013-03-12 13:44:00,55.4,30.2,29.29,SW,232,0.0,2.7,38,0.00,,---,0.00,VWS V14.00,2013-03-12 18:44:00,
2013-03-12 13:50:00,55.6,29.7,29.29,SW,218,2.7,2.7,37,0.00,,---,0.00,VWS V14.00,2013-03-12 18:50:00,
2013-03-12 13:57:00,55.6,29.7,29.29,NNE,15,0.0,3.1,37,0.00,,---,0.00,VWS V14.00,2013-03-12 18:57:00,
2013-03-12 14:00:00,55.4,29.6,29.29,SW,235,0.0,3.1,37,0.00,,---,0.00,VWS V14.00,2013-03-12 19:00:00,
2013-03-12 14:03:00,55.4,29.6,29.29,SSW,210,3.1,3.1,37,0.00,,---,0.00,VWS V14.00,2013-03-12 19:03:00,
2013-03-12 14:05:00,55.4,29.6,29.29,North,0,2.7,3.1,37,0.00,,---,0.00,VWS V14.00,2013-03-12 19:05:00,
2013-03-12 14:06:00,55.4,29.6,29.29,North,0,2.7,2.7,37,0.00,,---,0.00,VWS V14.00,2013-03-12 19:06:00,
2013-03-12 14:12:00,55.6,29.7,29.26,South,170,2.2,2.7,37,0.00,,---,0.00,VWS V14.00,2013-03-12 19:12:00,
2013-03-12 14:15:00,55.6,29.7,29.26,South,187,2.7,3.1,37,0.00,,---,0.00,VWS V14.00,2013-03-12 19:15:00,
2013-03-12 14:20:00,55.6,29.0,29.26,NNW,328,2.2,3.1,36,0.00,,---,0.00,VWS V14.00,2013-03-12 19:20:00,
2013-03-12 14:21:00,55.6,29.0,29.26,NNW,328,2.2,2.2,36,0.00,,---,0.00,VWS V14.00,2013-03-12 19:21:00,
2013-03-12 14:24:00,55.6,29.0,29.26,West,260,0.0,2.2,36,0.00,,---,0.00,VWS V14.00,2013-03-12 19:24:00,
2013-03-12 14:27:00,55.9,29.4,29.26,West,260,0.0,2.2,36,0.00,,---,0.00,VWS V14.00,2013-03-12 19:27:00,
2013-03-12 14:33:00,56.1,29.5,29.26,North,11,0.0,2.2,36,0.00,,---,0.00,VWS V14.00,2013-03-12 19:33:00,
2013-03-12 14:35:00,56.5,29.9,29.26,North,11,0.0,2.2,36,0.00,,---,0.00,VWS V14.00,2013-03-12 19:35:00,
2013-03-12 14:40:00,56.5,29.9,29.26,South,187,0.0,0.0,36,0.00,,---,0.00,VWS V14.00,2013-03-12 19:40:00,
2013-03-12 14:46:00,56.5,29.2,29.26,North,11,0.0,0.0,35,0.00,,---,0.00,VWS V14.00,2013-03-12 19:46:00,
2013-03-12 14:49:00,56.5,29.2,29.26,South,178,0.0,0.0,35,0.00,,---,0.00,VWS V14.00,2013-03-12 19:49:00,
2013-03-12 14:52:00,56.6,29.3,29.26,SSW,210,2.2,2.2,35,0.00,,---,0.00,VWS V14.00,2013-03-12 19:52:00,
2013-03-12 14:55:00,56.6,29.3,29.26,SE,142,0.0,2.2,35,0.00,,---,0.00,VWS V14.00,2013-03-12 19:55:00,
2013-03-12 15:01:00,57.2,29.8,29.26,ENE,57,0.0,4.0,35,0.00,,---,0.00,VWS V14.00,2013-03-12 20:01:00,
2013-03-12 15:04:00,57.2,29.8,29.26,ESE,103,2.2,4.0,35,0.00,,---,0.00,VWS V14.00,2013-03-12 20:04:00,
2013-03-12 15:07:00,57.2,29.8,29.26,ESE,103,2.2,2.2,35,0.00,,---,0.00,VWS V14.00,2013-03-12 20:07:00,
2013-03-12 15:13:00,57.7,30.3,29.26,NW,311,0.0,2.2,35,0.00,,---,0.00,VWS V14.00,2013-03-12 20:13:00,
2013-03-12 15:19:00,58.1,30.6,29.23,North,353,0.0,2.2,35,0.00,,---,0.00,VWS V14.00,2013-03-12 20:19:00,
2013-03-12 15:20:00,58.1,30.6,29.23,NNW,342,0.0,2.2,35,0.00,,---,0.00,VWS V14.00,2013-03-12 20:20:00,
2013-03-12 15:28:00,58.3,30.0,29.23,SW,225,0.0,0.0,34,0.00,,---,0.00,VWS V14.00,2013-03-12 20:28:00,
2013-03-12 15:34:00,58.6,30.4,29.23,East,99,0.0,2.2,34,0.00,,---,0.00,VWS V14.00,2013-03-12 20:34:00,
2013-03-12 15:37:00,58.6,30.4,29.23,North,0,0.0,0.0,34,0.00,,---,0.00,VWS V14.00,2013-03-12 20:37:00,
2013-03-12 15:40:00,59.0,30.7,29.23,NE,54,0.0,0.0,34,0.00,,---,0.00,VWS V14.00,2013-03-12 20:40:00,
2013-03-12 15:43:00,59.0,30.7,29.23,SSW,196,0.0,0.0,34,0.00,,---,0.00,VWS V14.00,2013-03-12 20:43:00,
2013-03-12 15:46:00,59.3,31.0,29.23,NW,324,2.7,2.7,34,0.00,,---,0.00,VWS V14.00,2013-03-12 20:46:00,
2013-03-12 15:50:00,59.3,31.0,29.23,SW,214,3.6,3.6,34,0.00,,---,0.00,VWS V14.00,2013-03-12 20:50:00,
2013-03-12 15:55:00,59.3,31.0,29.23,North,6,0.0,3.6,34,0.00,,---,0.00,VWS V14.00,2013-03-12 20:55:00,
2013-03-12 15:58:00,59.3,31.0,29.23,ENE,68,0.0,3.6,34,0.00,,---,0.00,VWS V14.00,2013-03-12 20:58:00,
2013-03-12 16:01:00,59.5,31.1,29.23,SW,227,4.0,4.0,34,0.00,,---,0.00,VWS V14.00,2013-03-12 21:01:00,
2013-03-12 16:05:00,59.2,30.1,29.23,SSE,168,3.1,4.0,33,0.00,,---,0.00,VWS V14.00,2013-03-12 21:05:00,
2013-03-12 16:11:00,59.2,30.1,29.23,SE,141,3.1,4.0,33,0.00,,---,0.00,VWS V14.00,2013-03-12 21:11:00,
2013-03-12 16:14:00,59.2,30.8,29.23,SE,141,0.0,4.0,34,0.00,,---,0.00,VWS V14.00,2013-03-12 21:14:00,
2013-03-12 16:17:00,59.5,30.4,29.23,SSW,211,0.0,4.0,33,0.00,,---,0.00,VWS V14.00,2013-03-12 21:17:00,
2013-03-12 16:20:00,59.9,31.5,29.23,SSW,210,0.0,4.0,34,0.00,,---,0.00,VWS V14.00,2013-03-12 21:20:00,
2013-03-12 16:23:00,59.9,31.5,29.23,NNE,21,2.7,2.7,34,0.00,,---,0.00,VWS V14.00,2013-03-12 21:23:00,
2013-03-12 16:29:00,59.3,30.3,29.23,NW,326,2.2,3.1,33,0.00,,---,0.00,VWS V14.00,2013-03-12 21:29:00,
2013-03-12 16:32:00,58.6,29.6,29.23,West,265,2.7,3.1,33,0.00,,---,0.00,VWS V14.00,2013-03-12 21:32:00,
2013-03-12 16:35:00,58.6,29.6,29.23,South,179,2.7,3.1,33,0.00,,---,0.00,VWS V14.00,2013-03-12 21:35:00,
2013-03-12 16:38:00,58.6,29.6,29.23,North,353,4.0,4.0,33,0.00,,---,0.00,VWS V14.00,2013-03-12 21:38:00,
2013-03-12 16:41:00,58.6,29.6,29.23,NW,311,0.0,4.0,33,0.00,,---,0.00,VWS V14.00,2013-03-12 21:41:00,
2013-03-12 16:47:00,58.4,30.2,29.23,SSW,204,0.0,4.0,34,0.00,,---,0.00,VWS V14.00,2013-03-12 21:47:00,
2013-03-12 16:50:00,58.4,30.2,29.23,WSW,249,3.6,4.0,34,0.00,,---,0.00,VWS V14.00,2013-03-12 21:50:00,
2013-03-12 16:56:00,58.8,30.5,29.23,South,169,3.6,3.6,34,0.00,,---,0.00,VWS V14.00,2013-03-12 21:56:00,
2013-03-12 16:59:00,58.8,30.5,29.23,NNE,12,3.1,3.6,34,0.00,,---,0.00,VWS V14.00,2013-03-12 21:59:00,
2013-03-12 17:02:00,59.0,30.7,29.23,North,353,4.5,4.5,34,0.00,,---,0.00,VWS V14.00,2013-03-12 22:02:00,
2013-03-12 17:05:00,58.8,30.5,29.23,North,357,2.7,4.5,34,0.00,,---,0.00,VWS V14.00,2013-03-12 22:05:00,
2013-03-12 17:11:00,58.4,30.2,29.23,NNE,14,0.0,3.1,34,0.00,,---,0.00,VWS V14.00,2013-03-12 22:11:00,
2013-03-12 17:14:00,58.4,30.2,29.23,South,178,3.6,3.6,34,0.00,,---,0.00,VWS V14.00,2013-03-12 22:14:00,
2013-03-12 17:20:00,59.3,31.0,29.23,East,94,3.6,4.0,34,0.00,,---,0.00,VWS V14.00,2013-03-12 22:20:00,
2013-03-12 17:26:00,61.5,32.2,29.23,NNE,14,0.0,3.6,33,0.00,,---,0.00,VWS V14.00,2013-03-12 22:26:00,
2013-03-12 17:32:00,62.9,33.4,29.23,NE,37,0.0,3.6,33,0.00,,---,0.00,VWS V14.00,2013-03-12 22:32:00,
2013-03-12 17:35:00,64.0,34.4,29.23,NE,37,0.0,3.6,33,0.00,,---,0.00,VWS V14.00,2013-03-12 22:35:00,
2013-03-12 17:38:00,64.6,34.8,29.23,East,99,2.2,2.2,33,0.00,,---,0.00,VWS V14.00,2013-03-12 22:38:00,
2013-03-12 17:42:00,64.6,34.8,29.23,South,184,0.0,2.2,33,0.00,,---,0.00,VWS V14.00,2013-03-12 22:42:00,
2013-03-12 17:45:00,64.6,34.1,29.23,SW,219,3.6,3.6,32,0.00,,---,0.00,VWS V14.00,2013-03-12 22:45:00,
2013-03-12 17:48:00,64.6,34.1,29.23,SW,219,3.6,3.6,32,0.00,,---,0.00,VWS V14.00,2013-03-12 22:48:00,
2013-03-12 17:50:00,64.4,33.9,29.23,South,190,0.0,3.6,32,0.00,,---,0.00,VWS V14.00,2013-03-12 22:50:00,
2013-03-12 17:57:00,64.2,33.0,29.23,South,188,3.6,3.6,31,0.00,,---,0.00,VWS V14.00,2013-03-12 22:57:00,
2013-03-12 18:00:00,65.5,35.6,29.23,SSE,159,3.1,3.6,33,0.00,,---,0.00,VWS V14.00,2013-03-12 23:00:00,
2013-03-12 18:05:00,65.5,34.8,29.23,NNW,342,3.6,4.0,32,0.00,,---,0.00,VWS V14.00,2013-03-12 23:05:00,
2013-03-12 18:06:00,65.5,34.8,29.23,NNW,342,3.6,3.6,32,0.00,,---,0.00,VWS V14.00,2013-03-12 23:06:00,
2013-03-12 18:12:00,64.7,34.2,29.23,South,189,0.0,3.6,32,0.00,,---,0.00,VWS V14.00,2013-03-12 23:12:00,
2013-03-12 18:15:00,64.2,33.8,29.23,South,188,0.0,3.6,32,0.00,,---,0.00,VWS V14.00,2013-03-12 23:15:00,
2013-03-12 18:18:00,64.0,34.4,29.23,SSW,203,4.0,4.0,33,0.00,,---,0.00,VWS V14.00,2013-03-12 23:18:00,
2013-03-12 18:20:00,64.0,34.4,29.23,SE,144,2.7,4.0,33,0.00,,---,0.00,VWS V14.00,2013-03-12 23:20:00,
2013-03-12 18:24:00,62.9,32.7,29.23,WSW,243,0.0,2.7,32,0.00,,---,0.00,VWS V14.00,2013-03-12 23:24:00,
2013-03-12 18:30:00,60.2,31.8,29.26,NNE,27,0.0,2.7,34,0.00,,---,0.00,VWS V14.00,2013-03-12 23:30:00,
2013-03-12 18:33:00,59.0,30.7,29.26,SW,214,0.0,2.7,34,0.00,,---,0.00,VWS V14.00,2013-03-12 23:33:00,
2013-03-12 18:36:00,58.4,30.2,29.26,SW,214,0.0,0.0,34,0.00,,---,0.00,VWS V14.00,2013-03-12 23:36:00,
2013-03-12 18:39:00,57.2,29.8,29.26,South,185,0.0,0.0,35,0.00,,---,0.00,VWS V14.00,2013-03-12 23:39:00,
2013-03-12 18:42:00,56.8,29.5,29.26,SSW,210,2.7,3.1,35,0.00,,---,0.00,VWS V14.00,2013-03-12 23:42:00,
2013-03-12 18:48:00,54.8,28.4,29.26,SE,135,0.0,3.1,36,0.00,,---,0.00,VWS V14.00,2013-03-12 23:48:00,
2013-03-12 18:50:00,54.8,28.4,29.26,SE,142,2.2,3.1,36,0.00,,---,0.00,VWS V14.00,2013-03-12 23:50:00,
2013-03-12 18:55:00,53.9,27.6,29.26,SE,132,0.0,4.0,36,0.00,,---,0.00,VWS V14.00,2013-03-12 23:55:00,
2013-03-12 19:01:00,53.2,27.0,29.26,South,189,0.0,4.0,36,0.00,,---,0.00,VWS V14.00,2013-03-13 00:01:00,
2013-03-12 19:04:00,52.3,26.8,29.26,South,180,0.0,4.0,37,0.00,,---,0.00,VWS V14.00,2013-03-13 00:04:00,
2013-03-12 19:05:00,52.3,26.8,29.26,South,180,0.0,4.0,37,0.00,,---,0.00,VWS V14.00,2013-03-13 00:05:00,
2013-03-12 19:13:00,51.1,26.4,29.26,SSW,210,0.0,0.0,38,0.00,,---,0.00,VWS V14.00,2013-03-13 00:13:00,
2013-03-12 19:19:00,50.7,26.0,29.26,NNE,18,0.0,0.0,38,0.00,,---,0.00,VWS V14.00,2013-03-13 00:19:00,
2013-03-12 19:20:00,50.7,26.0,29.26,NNE,18,0.0,0.0,38,0.00,,---,0.00,VWS V14.00,2013-03-13 00:20:00,
2013-03-12 19:25:00,49.6,25.7,29.26,SSE,148,0.0,0.0,39,0.00,,---,0.00,VWS V14.00,2013-03-13 00:25:00,
2013-03-12 19:28:00,49.6,25.7,29.26,SSE,148,0.0,0.0,39,0.00,,---,0.00,VWS V14.00,2013-03-13 00:28:00,
2013-03-12 19:31:00,49.3,26.0,29.26,South,175,0.0,0.0,40,0.00,,---,0.00,VWS V14.00,2013-03-13 00:31:00,
2013-03-12 19:35:00,49.1,25.8,29.26,SW,226,0.0,0.0,40,0.00,,---,0.00,VWS V14.00,2013-03-13 00:35:00,
2013-03-12 19:37:00,48.7,25.5,29.26,SW,226,0.0,0.0,40,0.00,,---,0.00,VWS V14.00,2013-03-13 00:37:00,
2013-03-12 19:43:00,48.5,25.9,29.26,South,187,0.0,2.7,41,0.00,,---,0.00,VWS V14.00,2013-03-13 00:43:00,
2013-03-12 19:49:00,47.8,25.3,29.26,SSE,158,0.0,2.7,41,0.00,,---,0.00,VWS V14.00,2013-03-13 00:49:00,
2013-03-12 19:50:00,47.8,25.3,29.26,SSE,158,0.0,2.7,41,0.00,,---,0.00,VWS V14.00,2013-03-13 00:50:00,
2013-03-12 19:55:00,47.5,25.5,29.26,SSW,208,0.0,2.2,42,0.00,,---,0.00,VWS V14.00,2013-03-13 00:55:00,
2013-03-12 19:58:00,47.5,26.1,29.29,ESE,123,0.0,2.2,43,0.00,,---,0.00,VWS V14.00,2013-03-13 00:58:00,
2013-03-12 20:05:00,47.1,25.8,29.29,SSW,201,0.0,2.2,43,0.00,,---,0.00,VWS V14.00,2013-03-13 01:05:00,
2013-03-12 20:11:00,46.9,25.6,29.29,WSW,249,0.0,0.0,43,0.00,,---,0.00,VWS V14.00,2013-03-13 01:11:00,
2013-03-12 20:17:00,46.7,26.0,29.29,WSW,245,0.0,3.1,44,0.00,,---,0.00,VWS V14.00,2013-03-13 01:17:00,
2013-03-12 20:20:00,46.7,26.0,29.29,WSW,245,0.0,3.1,44,0.00,,---,0.00,VWS V14.00,2013-03-13 01:20:00,
2013-03-12 20:26:00,46.4,26.2,29.29,SW,217,0.0,2.7,45,0.00,,---,0.00,VWS V14.00,2013-03-13 01:26:00,
2013-03-12 20:32:00,46.0,26.4,29.29,NNE,24,0.0,2.7,46,0.00,,---,0.00,VWS V14.00,2013-03-13 01:32:00,
2013-03-12 20:38:00,45.8,26.8,29.29,NNE,24,0.0,0.0,47,0.00,,---,0.00,VWS V14.00,2013-03-13 01:38:00,
2013-03-12 20:44:00,45.7,26.6,29.29,NNE,14,0.0,0.0,47,0.00,,---,0.00,VWS V14.00,2013-03-13 01:44:00,
2013-03-12 20:47:00,45.5,26.4,29.29,SSW,203,0.0,0.0,47,0.00,,---,0.00,VWS V14.00,2013-03-13 01:47:00,
2013-03-12 20:50:00,45.5,26.4,29.29,SSW,203,0.0,0.0,47,0.00,,---,0.00,VWS V14.00,2013-03-13 01:50:00,
2013-03-12 21:00:00,45.3,26.3,29.32,North,9,4.0,4.0,47,0.00,,---,0.00,VWS V14.00,2013-03-13 02:00:00,
2013-03-12 21:05:00,45.1,26.1,29.32,North,9,4.0,4.0,47,0.00,,---,0.00,VWS V14.00,2013-03-13 02:05:00,
2013-03-12 21:06:00,45.1,26.1,29.32,SSE,154,3.6,4.0,47,0.00,,---,0.00,VWS V14.00,2013-03-13 02:06:00,
2013-03-12 21:09:00,45.1,26.1,29.32,SW,235,0.0,4.0,47,0.00,,---,0.00,VWS V14.00,2013-03-13 02:09:00,
2013-03-12 21:15:00,44.9,25.9,29.32,South,177,2.7,4.0,47,0.00,,---,0.00,VWS V14.00,2013-03-13 02:15:00,
2013-03-12 21:18:00,44.9,25.9,29.32,SW,223,3.1,4.0,47,0.00,,---,0.00,VWS V14.00,2013-03-13 02:18:00,
2013-03-12 21:20:00,44.9,25.9,29.32,South,189,2.7,4.0,47,0.00,,---,0.00,VWS V14.00,2013-03-13 02:20:00,
2013-03-12 21:21:00,44.9,25.9,29.32,South,189,0.0,2.7,47,0.00,,---,0.00,VWS V14.00,2013-03-13 02:21:00,
2013-03-12 21:27:00,44.9,25.9,29.32,WSW,247,0.0,2.7,47,0.00,,---,0.00,VWS V14.00,2013-03-13 02:27:00,
2013-03-12 21:30:00,44.9,25.9,29.32,SSE,164,3.1,3.1,47,0.00,,---,0.00,VWS V14.00,2013-03-13 02:30:00,
2013-03-12 21:33:00,44.8,25.8,29.32,South,175,0.0,3.1,47,0.00,,---,0.00,VWS V14.00,2013-03-13 02:33:00,
2013-03-12 21:35:00,44.8,25.8,29.32,SW,231,4.0,4.0,47,0.00,,---,0.00,VWS V14.00,2013-03-13 02:35:00,
2013-03-12 21:39:00,44.6,25.1,29.32,SSE,147,4.9,4.9,46,0.00,,---,0.00,VWS V14.00,2013-03-13 02:39:00,
2013-03-12 21:45:00,44.6,25.1,29.32,ESE,110,3.1,4.9,46,0.00,,---,0.00,VWS V14.00,2013-03-13 02:45:00,
2013-03-12 21:50:00,44.4,24.9,29.32,South,181,0.0,4.9,46,0.00,,---,0.00,VWS V14.00,2013-03-13 02:50:00,
2013-03-12 21:51:00,44.4,24.9,29.32,South,181,0.0,0.0,46,0.00,,---,0.00,VWS V14.00,2013-03-13 02:51:00,
2013-03-12 21:54:00,44.2,24.8,29.32,SSE,165,0.0,4.0,46,0.00,,---,0.00,VWS V14.00,2013-03-13 02:54:00,
2013-03-12 21:57:00,44.2,24.8,29.35,West,278,3.1,4.0,46,0.00,,---,0.00,VWS V14.00,2013-03-13 02:57:00,
2013-03-12 22:00:00,44.0,24.6,29.35,SW,225,0.0,4.0,46,0.00,,---,0.00,VWS V14.00,2013-03-13 03:00:00,
2013-03-12 22:03:00,43.9,24.4,29.35,WSW,250,4.9,4.9,46,0.00,,---,0.00,VWS V14.00,2013-03-13 03:03:00,
2013-03-12 22:09:00,43.7,24.3,29.35,SE,140,0.0,3.1,46,0.00,,---,0.00,VWS V14.00,2013-03-13 03:09:00,
2013-03-12 22:13:00,43.7,24.3,29.35,SE,133,0.0,3.1,46,0.00,,---,0.00,VWS V14.00,2013-03-13 03:13:00,
2013-03-12 22:16:00,43.5,24.1,29.35,SSE,164,0.0,3.1,46,0.00,,---,0.00,VWS V14.00,2013-03-13 03:16:00,
2013-03-12 22:19:00,43.5,24.1,29.35,SW,220,0.0,3.1,46,0.00,,---,0.00,VWS V14.00,2013-03-13 03:19:00,
2013-03-12 22:22:00,43.3,23.9,29.35,SW,223,0.0,0.0,46,0.00,,---,0.00,VWS V14.00,2013-03-13 03:22:00,
2013-03-12 22:25:00,43.1,23.8,29.35,SW,223,0.0,0.0,46,0.00,,---,0.00,VWS V14.00,2013-03-13 03:25:00,
2013-03-12 22:28:00,43.1,23.8,29.35,South,191,0.0,0.0,46,0.00,,---,0.00,VWS V14.00,2013-03-13 03:28:00,
2013-03-12 22:34:00,43.0,23.1,29.35,NNE,22,0.0,4.9,45,0.00,,---,0.00,VWS V14.00,2013-03-13 03:34:00,
2013-03-12 22:40:00,42.8,22.9,29.35,WNW,297,2.2,2.2,45,0.00,,---,0.00,VWS V14.00,2013-03-13 03:40:00,
2013-03-12 22:43:00,42.8,22.9,29.35,SSE,168,0.0,2.7,45,0.00,,---,0.00,VWS V14.00,2013-03-13 03:43:00,
2013-03-12 22:49:00,42.6,22.8,29.35,WSW,250,0.0,2.7,45,0.00,,---,0.00,VWS V14.00,2013-03-13 03:49:00,
2013-03-12 22:50:00,42.4,22.6,29.35,NNW,344,4.0,4.0,45,0.00,,---,0.00,VWS V14.00,2013-03-13 03:50:00,
2013-03-12 22:52:00,42.4,22.6,29.35,NNW,344,4.0,4.0,45,0.00,,---,0.00,VWS V14.00,2013-03-13 03:52:00,
2013-03-12 22:58:00,42.2,22.4,29.38,WSW,241,0.0,4.0,45,0.00,,---,0.00,VWS V14.00,2013-03-13 03:58:00,
2013-03-12 23:04:00,42.1,22.3,29.38,South,183,0.0,4.0,45,0.00,,---,0.00,VWS V14.00,2013-03-13 04:04:00,
2013-03-12 23:05:00,41.9,22.1,29.38,South,183,0.0,4.0,45,0.00,,---,0.00,VWS V14.00,2013-03-13 04:05:00,
2013-03-12 23:10:00,41.7,21.9,29.38,North,4,0.0,2.2,45,0.00,,---,0.00,VWS V14.00,2013-03-13 04:10:00,
2013-03-12 23:13:00,41.7,21.9,29.38,North,4,0.0,2.2,45,0.00,,---,0.00,VWS V14.00,2013-03-13 04:13:00,
2013-03-12 23:17:00,41.5,21.8,29.38,SSE,153,2.2,2.2,45,0.00,,---,0.00,VWS V14.00,2013-03-13 04:17:00,
2013-03-12 23:20:00,41.3,21.6,29.38,SSE,147,0.0,2.2,45,0.00,,---,0.00,VWS V14.00,2013-03-13 04:20:00,
2013-03-12 23:23:00,41.3,21.6,29.38,SSE,147,0.0,0.0,45,0.00,,---,0.00,VWS V14.00,2013-03-13 04:23:00,
2013-03-12 23:26:00,41.3,21.6,29.38,SSE,148,0.0,0.0,45,0.00,,---,0.00,VWS V14.00,2013-03-13 04:26:00,
2013-03-12 23:29:00,41.2,21.5,29.38,SSW,195,0.0,0.0,45,0.00,,---,0.00,VWS V14.00,2013-03-13 04:29:00,
2013-03-12 23:35:00,41.0,21.8,29.38,SSW,195,0.0,0.0,46,0.00,,---,0.00,VWS V14.00,2013-03-13 04:35:00,
2013-03-12 23:38:00,40.8,21.1,29.38,SSW,195,0.0,0.0,45,0.00,,---,0.00,VWS V14.00,2013-03-13 04:38:00,
2013-03-12 23:44:00,40.6,21.0,29.38,NE,52,0.0,2.7,45,0.00,,---,0.00,VWS V14.00,2013-03-13 04:44:00,
2013-03-12 23:47:00,40.4,21.3,29.38,NE,52,0.0,2.7,46,0.00,,---,0.00,VWS V14.00,2013-03-13 04:47:00,
2013-03-12 23:50:00,40.4,21.3,29.38,NNW,332,2.7,2.7,46,0.00,,---,0.00,VWS V14.00,2013-03-13 04:50:00,
2013-03-12 23:53:00,40.3,21.1,29.38,SSW,197,0.0,2.7,46,0.00,,---,0.00,VWS V14.00,2013-03-13 04:53:00,
2013-03-12 23:59:00,40.1,21.0,29.38,SW,219,0.0,2.7,46,0.00,,---,0.00,VWS V14.00,2013-03-13 04:59:00,